owner,sensor,date,latitude,longitude,vertical_datum,direction_of_sea_water_velocity,sea_water_speed,upward_sea_water_velocity,qcFlag 
TABS,ioos:station:wmo:42051:1,2000-06-02T00:00:00Z,29.6350,-93.6417,2.0,0.0,0.0,-99999.0,'11133222,11111222,99999999' 
TABS,ioos:station:wmo:42051:1,2000-06-02T11:30:00Z,29.6350,-93.6417,2.0,337.4077081,9.683078023,-99999.0,'11133222,11111222,99999999' 
TABS,ioos:station:wmo:42051:1,2000-06-02T12:00:00Z,29.6350,-93.6417,2.0,268.5206741,5.811935994,-99999.0,'11133222,11111222,99999999' 
TABS,ioos:station:wmo:42051:1,2000-06-02T12:30:00Z,29.6350,-93.6417,2.0,284.2993785,8.462156935,-99999.0,'11133222,11111222,99999999' 
TABS,ioos:station:wmo:42051:1,2000-06-02T13:00:00Z,29.6350,-93.6417,2.0,294.8025788,8.867970456,-99999.0,'11133222,11111222,99999999' 
TABS,ioos:station:wmo:42051:1,2000-06-02T13:30:00Z,29.6350,-93.6417,2.0,303.6904097,10.7445428,-99999.0,'11111222,11111222,99999999' 
TABS,ioos:station:wmo:42051:1,2000-06-02T14:00:00Z,29.6350,-93.6417,2.0,290.4430862,10.65076523,-99999.0,'11111222,11111222,99999999' 
TABS,ioos:station:wmo:42051:1,2000-06-02T14:30:00Z,29.6350,-93.6417,2.0,284.3905299,11.38726482,-99999.0,'11111222,11111222,99999999' 
TABS,ioos:station:wmo:42051:1,2000-06-02T15:00:00Z,29.6350,-93.6417,2.0,288.1920345,11.91556965,-99999.0,'11111222,11111222,99999999' 
TABS,ioos:station:wmo:42051:1,2000-06-02T15:30:00Z,29.6350,-93.6417,2.0,290.3219642,12.87112272,-99999.0,'11111222,11111222,99999999' 
TABS,ioos:station:wmo:42051:1,2000-06-02T16:00:00Z,29.6350,-93.6417,2.0,304.7730819,15.41232299,-99999.0,'11111222,11111222,99999999' 
TABS,ioos:station:wmo:42051:1,2000-06-02T16:30:00Z,29.6350,-93.6417,2.0,309.6896371,17.03662232,-99999.0,'11111222,11111222,99999999' 
TABS,ioos:station:wmo:42051:1,2000-06-02T17:00:00Z,29.6350,-93.6417,2.0,313.9881304,12.00854696,-99999.0,'11111222,11111222,99999999' 
TABS,ioos:station:wmo:42051:1,2000-06-02T17:30:00Z,29.6350,-93.6417,2.0,325.2195188,8.887907515,-99999.0,'11133222,11111222,99999999' 
TABS,ioos:station:wmo:42051:1,2000-06-02T18:00:00Z,29.6350,-93.6417,2.0,328.8600878,8.353735691,-99999.0,'11133222,11111222,99999999' 
TABS,ioos:station:wmo:42051:1,2000-06-02T18:30:00Z,29.6350,-93.6417,2.0,347.554279,9.001538757,-99999.0,'11133222,11111222,99999999' 
TABS,ioos:station:wmo:42051:1,2000-06-02T19:00:00Z,29.6350,-93.6417,2.0,358.0115773,8.645206764,-99999.0,'11133222,11111222,99999999' 
TABS,ioos:station:wmo:42051:1,2000-06-02T19:30:00Z,29.6350,-93.6417,2.0,10.61500256,7.274482799,-99999.0,'11133222,11111222,99999999' 
TABS,ioos:station:wmo:42051:1,2000-06-02T20:00:00Z,29.6350,-93.6417,2.0,15.6026271,6.655238538,-99999.0,'11133222,11111222,99999999' 
TABS,ioos:station:wmo:42051:1,2000-06-02T20:30:00Z,29.6350,-93.6417,2.0,18.15100786,9.566007527,-99999.0,'11133222,11111222,99999999' 
TABS,ioos:station:wmo:42051:1,2000-06-02T21:00:00Z,29.6350,-93.6417,2.0,26.23277928,10.79144569,-99999.0,'11111222,11111222,99999999' 
TABS,ioos:station:wmo:42051:1,2000-06-02T21:30:00Z,29.6350,-93.6417,2.0,23.67371909,11.87970117,-99999.0,'11111222,11111222,99999999' 
TABS,ioos:station:wmo:42051:1,2000-06-02T22:00:00Z,29.6350,-93.6417,2.0,351.3811292,9.94228344,-99999.0,'11133222,11111222,99999999' 
TABS,ioos:station:wmo:42051:1,2000-06-02T22:30:00Z,29.6350,-93.6417,2.0,302.4640014,5.831234861,-99999.0,'11133222,11111222,99999999' 
TABS,ioos:station:wmo:42051:1,2000-06-02T23:00:00Z,29.6350,-93.6417,2.0,327.0481193,3.015045605,-99999.0,'11133222,11111222,99999999' 
TABS,ioos:station:wmo:42051:1,2000-06-02T23:30:00Z,29.6350,-93.6417,2.0,9.922380728,3.48208271,-99999.0,'11133222,11111222,99999999' 
TABS,ioos:station:wmo:42051:1,2000-06-03T02:00:00Z,29.6350,-93.6417,2.0,250.0277405,8.724700568,-99999.0,'11133222,11111222,99999999' 
TABS,ioos:station:wmo:42051:1,2000-06-03T02:30:00Z,29.6350,-93.6417,2.0,234.4706432,7.692106344,-99999.0,'11133222,11111222,99999999' 
TABS,ioos:station:wmo:42051:1,2000-06-03T03:00:00Z,29.6350,-93.6417,2.0,230.1151349,13.00599862,-99999.0,'11111222,11111222,99999999' 
TABS,ioos:station:wmo:42051:1,2000-06-03T03:30:00Z,29.6350,-93.6417,2.0,234.0685126,12.695704,-99999.0,'11111222,11111222,99999999' 
TABS,ioos:station:wmo:42051:1,2000-06-03T04:00:00Z,29.6350,-93.6417,2.0,241.9662156,15.53235655,-99999.0,'11111222,11111222,99999999' 
TABS,ioos:station:wmo:42051:1,2000-06-03T04:30:00Z,29.6350,-93.6417,2.0,241.2262859,12.07031483,-99999.0,'11111222,11111222,99999999' 
TABS,ioos:station:wmo:42051:1,2000-06-03T05:00:00Z,29.6350,-93.6417,2.0,234.3119341,8.433795113,-99999.0,'11133222,11111222,99999999' 
TABS,ioos:station:wmo:42051:1,2000-06-03T05:30:00Z,29.6350,-93.6417,2.0,227.9708406,10.23144662,-99999.0,'11111222,11111222,99999999' 
TABS,ioos:station:wmo:42051:1,2000-06-03T06:00:00Z,29.6350,-93.6417,2.0,230.1254425,10.6846853,-99999.0,'11111222,11111222,99999999' 
TABS,ioos:station:wmo:42051:1,2000-06-03T06:30:00Z,29.6350,-93.6417,2.0,242.7164048,11.06046111,-99999.0,'11111222,11111222,99999999' 
TABS,ioos:station:wmo:42051:1,2000-06-03T07:00:00Z,29.6350,-93.6417,2.0,244.317501,13.06018759,-99999.0,'11111222,11111222,99999999' 
TABS,ioos:station:wmo:42051:1,2000-06-03T07:30:00Z,29.6350,-93.6417,2.0,241.3973545,11.19636102,-99999.0,'11111222,11111222,99999999' 
TABS,ioos:station:wmo:42051:1,2000-06-03T08:00:00Z,29.6350,-93.6417,2.0,257.5848541,7.628374663,-99999.0,'11133222,11111222,99999999' 
TABS,ioos:station:wmo:42051:1,2000-06-03T08:30:00Z,29.6350,-93.6417,2.0,244.9420223,10.2,-99999.0,'11111222,11111222,99999999' 
TABS,ioos:station:wmo:42051:1,2000-06-03T09:00:00Z,29.6350,-93.6417,2.0,266.4008194,4.779424652,-99999.0,'11133222,11111222,99999999' 
TABS,ioos:station:wmo:42051:1,2000-06-03T09:30:00Z,29.6350,-93.6417,2.0,274.5792606,9.269584672,-99999.0,'11133222,11111222,99999999' 
TABS,ioos:station:wmo:42051:1,2000-06-03T10:00:00Z,29.6350,-93.6417,2.0,277.5693396,14.72832645,-99999.0,'11111222,11111222,99999999' 
TABS,ioos:station:wmo:42051:1,2000-06-03T10:30:00Z,29.6350,-93.6417,2.0,286.5080727,18.33577105,-99999.0,'11111222,11111222,99999999' 
TABS,ioos:station:wmo:42051:1,2000-06-03T11:00:00Z,29.6350,-93.6417,2.0,297.2592273,21.78984396,-99999.0,'11111222,11111222,99999999' 
TABS,ioos:station:wmo:42051:1,2000-06-03T11:30:00Z,29.6350,-93.6417,2.0,304.9651884,24.18536748,-99999.0,'11111222,11111222,99999999' 
TABS,ioos:station:wmo:42051:1,2000-06-03T12:00:00Z,29.6350,-93.6417,2.0,310.6414993,24.93399286,-99999.0,'11111222,11111222,99999999' 
TABS,ioos:station:wmo:42051:1,2000-06-03T12:30:00Z,29.6350,-93.6417,2.0,313.5255728,24.45278103,-99999.0,'11111222,11111222,99999999' 
TABS,ioos:station:wmo:42051:1,2000-06-03T13:00:00Z,29.6350,-93.6417,2.0,313.4418706,23.39974786,-99999.0,'11111222,11111222,99999999' 
TABS,ioos:station:wmo:42051:1,2000-06-03T13:30:00Z,29.6350,-93.6417,2.0,319.6856914,25.7966083,-99999.0,'11111222,11111222,99999999' 
TABS,ioos:station:wmo:42051:1,2000-06-03T14:00:00Z,29.6350,-93.6417,2.0,321.4024092,27.45848685,-99999.0,'11111222,11111222,99999999' 
TABS,ioos:station:wmo:42051:1,2000-06-03T14:30:00Z,29.6350,-93.6417,2.0,326.5555611,27.85175219,-99999.0,'11111222,11111222,99999999' 
TABS,ioos:station:wmo:42051:1,2000-06-03T15:00:00Z,29.6350,-93.6417,2.0,321.2923369,27.87234113,-99999.0,'11111222,11111222,99999999' 
TABS,ioos:station:wmo:42051:1,2000-06-03T15:30:00Z,29.6350,-93.6417,2.0,327.4272828,25.46557873,-99999.0,'11111222,11111222,99999999' 
TABS,ioos:station:wmo:42051:1,2000-06-03T16:00:00Z,29.6350,-93.6417,2.0,328.6449102,22.3313524,-99999.0,'11111222,11111222,99999999' 
TABS,ioos:station:wmo:42051:1,2000-06-03T16:30:00Z,29.6350,-93.6417,2.0,333.446874,21.98949295,-99999.0,'11111222,11111222,99999999' 
TABS,ioos:station:wmo:42051:1,2000-06-03T17:00:00Z,29.6350,-93.6417,2.0,335.4801354,18.67411578,-99999.0,'11111222,11111222,99999999' 
TABS,ioos:station:wmo:42051:1,2000-06-03T17:30:00Z,29.6350,-93.6417,2.0,324.7812199,18.60572224,-99999.0,'11111222,11111222,99999999' 
TABS,ioos:station:wmo:42051:1,2000-06-03T18:00:00Z,29.6350,-93.6417,2.0,325.5929877,16.61734636,-99999.0,'11111222,11111222,99999999' 
TABS,ioos:station:wmo:42051:1,2000-06-03T18:30:00Z,29.6350,-93.6417,2.0,318.7474035,12.87565532,-99999.0,'11111222,11111222,99999999' 
TABS,ioos:station:wmo:42051:1,2000-06-03T19:00:00Z,29.6350,-93.6417,2.0,306.8635452,17.13600012,-99999.0,'11111222,11111222,99999999' 
TABS,ioos:station:wmo:42051:1,2000-06-03T19:30:00Z,29.6350,-93.6417,2.0,336.0328233,11.74247844,-99999.0,'11111222,11111222,99999999' 
TABS,ioos:station:wmo:42051:1,2000-06-03T20:00:00Z,29.6350,-93.6417,2.0,332.4627035,11.59344642,-99999.0,'11111222,11111222,99999999' 
TABS,ioos:station:wmo:42051:1,2000-06-03T20:30:00Z,29.6350,-93.6417,2.0,351.8797453,8.42447031,-99999.0,'11133222,11111222,99999999' 
TABS,ioos:station:wmo:42051:1,2000-06-03T21:00:00Z,29.6350,-93.6417,2.0,1.518290956,5.661987284,-99999.0,'11133222,11111222,99999999' 
TABS,ioos:station:wmo:42051:1,2000-06-03T21:30:00Z,29.6350,-93.6417,2.0,11.57537221,5.930615482,-99999.0,'11133222,11111222,99999999' 
TABS,ioos:station:wmo:42051:1,2000-06-03T22:00:00Z,29.6350,-93.6417,2.0,7.812123901,3.310724996,-99999.0,'11133222,11111222,99999999' 
TABS,ioos:station:wmo:42051:1,2000-06-03T22:30:00Z,29.6350,-93.6417,2.0,299.9520752,4.466519898,-99999.0,'11133222,11111222,99999999' 
TABS,ioos:station:wmo:42051:1,2000-06-03T23:00:00Z,29.6350,-93.6417,2.0,299.9209222,6.876518014,-99999.0,'11133222,11111222,99999999' 
TABS,ioos:station:wmo:42051:1,2000-06-03T23:30:00Z,29.6350,-93.6417,2.0,284.6121849,10.62359638,-99999.0,'11111222,11111222,99999999' 
TABS,ioos:station:wmo:42051:1,2000-06-04T00:00:00Z,29.6350,-93.6417,2.0,281.3021102,13.67517824,-99999.0,'11111222,11111222,99999999' 
TABS,ioos:station:wmo:42051:1,2000-06-04T00:30:00Z,29.6350,-93.6417,2.0,283.8689702,12.43242937,-99999.0,'11111222,11111222,99999999' 
TABS,ioos:station:wmo:42051:1,2000-06-04T01:00:00Z,29.6350,-93.6417,2.0,260.1243576,13.00265358,-99999.0,'11111222,11111222,99999999' 
TABS,ioos:station:wmo:42051:1,2000-06-04T01:30:00Z,29.6350,-93.6417,2.0,256.5077575,11.4870057,-99999.0,'11111222,11111222,99999999' 
TABS,ioos:station:wmo:42051:1,2000-06-04T02:00:00Z,29.6350,-93.6417,2.0,255.5891454,10.76881145,-99999.0,'11111222,11111222,99999999' 
TABS,ioos:station:wmo:42051:1,2000-06-04T02:30:00Z,29.6350,-93.6417,2.0,247.2078875,19.231625,-99999.0,'11111222,11111222,99999999' 
TABS,ioos:station:wmo:42051:1,2000-06-04T03:00:00Z,29.6350,-93.6417,2.0,243.2503603,20.86262208,-99999.0,'11111222,11111222,99999999' 
TABS,ioos:station:wmo:42051:1,2000-06-04T03:30:00Z,29.6350,-93.6417,2.0,242.0934654,20.06302569,-99999.0,'11111222,11111222,99999999' 
TABS,ioos:station:wmo:42051:1,2000-06-04T04:00:00Z,29.6350,-93.6417,2.0,230.946878,24.36367994,-99999.0,'11111222,11111222,99999999' 
TABS,ioos:station:wmo:42051:1,2000-06-04T04:30:00Z,29.6350,-93.6417,2.0,226.9375807,24.88317705,-99999.0,'11111222,11111222,99999999' 
TABS,ioos:station:wmo:42051:1,2000-06-04T05:00:00Z,29.6350,-93.6417,2.0,223.8570116,26.23887955,-99999.0,'11111222,11111222,99999999' 
TABS,ioos:station:wmo:42051:1,2000-06-04T05:30:00Z,29.6350,-93.6417,2.0,223.7615672,34.03392425,-99999.0,'11111222,11111222,99999999' 
TABS,ioos:station:wmo:42051:1,2000-06-04T06:00:00Z,29.6350,-93.6417,2.0,225.8752621,34.24210858,-99999.0,'11111222,11111222,99999999' 
TABS,ioos:station:wmo:42051:1,2000-06-04T06:30:00Z,29.6350,-93.6417,2.0,228.8674697,28.09370036,-99999.0,'11111222,11111222,99999999' 
TABS,ioos:station:wmo:42051:1,2000-06-04T07:00:00Z,29.6350,-93.6417,2.0,228.3069492,27.33277337,-99999.0,'11111222,11111222,99999999' 
TABS,ioos:station:wmo:42051:1,2000-06-04T07:30:00Z,29.6350,-93.6417,2.0,225.6737196,26.44762371,-99999.0,'11111222,11111222,99999999' 
TABS,ioos:station:wmo:42051:1,2000-06-04T08:00:00Z,29.6350,-93.6417,2.0,229.1299653,27.78367326,-99999.0,'11111222,11111222,99999999' 
TABS,ioos:station:wmo:42051:1,2000-06-04T08:30:00Z,29.6350,-93.6417,2.0,232.3323156,32.18911773,-99999.0,'11111222,11111222,99999999' 
TABS,ioos:station:wmo:42051:1,2000-06-04T09:00:00Z,29.6350,-93.6417,2.0,234.4917749,31.30084344,-99999.0,'11111222,11111222,99999999' 
TABS,ioos:station:wmo:42051:1,2000-06-04T09:30:00Z,29.6350,-93.6417,2.0,242.2733508,29.7905438,-99999.0,'11111222,11111222,99999999' 
TABS,ioos:station:wmo:42051:1,2000-06-04T10:00:00Z,29.6350,-93.6417,2.0,239.549388,28.51278485,-99999.0,'11111222,11111222,99999999' 
TABS,ioos:station:wmo:42051:1,2000-06-04T10:30:00Z,29.6350,-93.6417,2.0,249.5283818,27.6779208,-99999.0,'11111222,11111222,99999999' 
TABS,ioos:station:wmo:42051:1,2000-06-04T11:00:00Z,29.6350,-93.6417,2.0,247.6552788,23.51565649,-99999.0,'11111222,11111222,99999999' 
TABS,ioos:station:wmo:42051:1,2000-06-04T11:30:00Z,29.6350,-93.6417,2.0,244.2359705,18.86531473,-99999.0,'11111222,11111222,99999999' 
TABS,ioos:station:wmo:42051:1,2000-06-04T12:00:00Z,29.6350,-93.6417,2.0,250.834522,18.61151525,-99999.0,'11111222,11111222,99999999' 
TABS,ioos:station:wmo:42051:1,2000-06-04T12:30:00Z,29.6350,-93.6417,2.0,251.9339033,22.57280665,-99999.0,'11111222,11111222,99999999' 
TABS,ioos:station:wmo:42051:1,2000-06-04T13:00:00Z,29.6350,-93.6417,2.0,265.5651947,30.7821458,-99999.0,'11111222,11111222,99999999' 
TABS,ioos:station:wmo:42051:1,2000-06-04T13:30:00Z,29.6350,-93.6417,2.0,265.9757161,40.32941606,-99999.0,'11111222,11111222,99999999' 
TABS,ioos:station:wmo:42051:1,2000-06-04T14:00:00Z,29.6350,-93.6417,2.0,272.5112418,37.43593995,-99999.0,'11111222,11111222,99999999' 
TABS,ioos:station:wmo:42051:1,2000-06-04T14:30:00Z,29.6350,-93.6417,2.0,268.0702894,39.80256273,-99999.0,'11111222,11111222,99999999' 
TABS,ioos:station:wmo:42051:1,2000-06-04T15:00:00Z,29.6350,-93.6417,2.0,261.7302732,51.79855307,-99999.0,'11111222,11111222,99999999' 
TABS,ioos:station:wmo:42051:1,2000-06-04T15:30:00Z,29.6350,-93.6417,2.0,264.1377777,55.41978437,-99999.0,'11111222,11111222,99999999' 
TABS,ioos:station:wmo:42051:1,2000-06-04T16:00:00Z,29.6350,-93.6417,2.0,266.1696816,60.18440745,-99999.0,'11111222,11111222,99999999' 
TABS,ioos:station:wmo:42051:1,2000-06-04T16:30:00Z,29.6350,-93.6417,2.0,263.4919021,60.43943249,-99999.0,'11111222,11111222,99999999' 
TABS,ioos:station:wmo:42051:1,2000-06-04T17:00:00Z,29.6350,-93.6417,2.0,263.4235389,52.04240194,-99999.0,'11111222,11111222,99999999' 
TABS,ioos:station:wmo:42051:1,2000-06-04T17:30:00Z,29.6350,-93.6417,2.0,263.8699033,50.19698895,-99999.0,'11111222,11111222,99999999' 
TABS,ioos:station:wmo:42051:1,2000-06-04T18:00:00Z,29.6350,-93.6417,2.0,261.6444457,54.36703137,-99999.0,'11111222,11111222,99999999' 
TABS,ioos:station:wmo:42051:1,2000-06-04T18:30:00Z,29.6350,-93.6417,2.0,263.052125,48.03268158,-99999.0,'11111222,11111222,99999999' 
TABS,ioos:station:wmo:42051:1,2000-06-04T19:00:00Z,29.6350,-93.6417,2.0,264.3733661,48.65438624,-99999.0,'11111222,11111222,99999999' 
TABS,ioos:station:wmo:42051:1,2000-06-04T19:30:00Z,29.6350,-93.6417,2.0,265.2535762,48.58659074,-99999.0,'11111222,11111222,99999999' 
TABS,ioos:station:wmo:42051:1,2000-06-04T20:00:00Z,29.6350,-93.6417,2.0,263.168033,42.62261489,-99999.0,'11111222,11111222,99999999' 
TABS,ioos:station:wmo:42051:1,2000-06-04T20:30:00Z,29.6350,-93.6417,2.0,263.7745182,41.22306757,-99999.0,'11111222,11111222,99999999' 
TABS,ioos:station:wmo:42051:1,2000-06-04T21:00:00Z,29.6350,-93.6417,2.0,264.6617645,41.60040024,-99999.0,'11111222,11111222,99999999' 
TABS,ioos:station:wmo:42051:1,2000-06-04T21:30:00Z,29.6350,-93.6417,2.0,264.3418801,37.7338164,-99999.0,'11111222,11111222,99999999' 
TABS,ioos:station:wmo:42051:1,2000-06-04T22:00:00Z,29.6350,-93.6417,2.0,267.1219336,35.65496038,-99999.0,'11111222,11111222,99999999' 
TABS,ioos:station:wmo:42051:1,2000-06-04T22:30:00Z,29.6350,-93.6417,2.0,266.9564324,33.71754736,-99999.0,'11111222,11111222,99999999' 
TABS,ioos:station:wmo:42051:1,2000-06-04T23:00:00Z,29.6350,-93.6417,2.0,265.37691,31.39211684,-99999.0,'11111222,11111222,99999999' 
TABS,ioos:station:wmo:42051:1,2000-06-04T23:30:00Z,29.6350,-93.6417,2.0,261.6791455,31.92604736,-99999.0,'11111222,11111222,99999999' 
TABS,ioos:station:wmo:42051:1,2000-06-05T00:00:00Z,29.6350,-93.6417,2.0,262.6946656,35.15533814,-99999.0,'11111222,11111222,99999999' 
TABS,ioos:station:wmo:42051:1,2000-06-05T00:30:00Z,29.6350,-93.6417,2.0,266.4899683,36.42832003,-99999.0,'11111222,11111222,99999999' 
TABS,ioos:station:wmo:42051:1,2000-06-05T01:00:00Z,29.6350,-93.6417,2.0,270.2818315,30.54036837,-99999.0,'11111222,11111222,99999999' 
TABS,ioos:station:wmo:42051:1,2000-06-05T01:30:00Z,29.6350,-93.6417,2.0,269.1984181,32.18314621,-99999.0,'11111222,11111222,99999999' 
TABS,ioos:station:wmo:42051:1,2000-06-05T02:00:00Z,29.6350,-93.6417,2.0,271.3177393,32.18850727,-99999.0,'11111222,11111222,99999999' 
TABS,ioos:station:wmo:42051:1,2000-06-05T02:30:00Z,29.6350,-93.6417,2.0,266.902261,33.12839417,-99999.0,'11111222,11111222,99999999' 
TABS,ioos:station:wmo:42051:1,2000-06-05T03:00:00Z,29.6350,-93.6417,2.0,261.8297087,34.62137057,-99999.0,'11111222,11111222,99999999' 
TABS,ioos:station:wmo:42051:1,2000-06-05T03:30:00Z,29.6350,-93.6417,2.0,260.8091639,36.37697349,-99999.0,'11111222,11111222,99999999' 
TABS,ioos:station:wmo:42051:1,2000-06-05T04:00:00Z,29.6350,-93.6417,2.0,256.8182937,36.57359293,-99999.0,'11111222,11111222,99999999' 
TABS,ioos:station:wmo:42051:1,2000-06-05T04:30:00Z,29.6350,-93.6417,2.0,249.0233409,38.29806392,-99999.0,'11111222,11111222,99999999' 
TABS,ioos:station:wmo:42051:1,2000-06-05T05:00:00Z,29.6350,-93.6417,2.0,247.6145166,37.54954594,-99999.0,'11111222,11111222,99999999' 
TABS,ioos:station:wmo:42051:1,2000-06-05T05:30:00Z,29.6350,-93.6417,2.0,241.1125642,34.5487858,-99999.0,'11111222,11111222,99999999' 
TABS,ioos:station:wmo:42051:1,2000-06-05T06:00:00Z,29.6350,-93.6417,2.0,239.9666034,33.0469923,-99999.0,'11111222,11111222,99999999' 
TABS,ioos:station:wmo:42051:1,2000-06-05T06:30:00Z,29.6350,-93.6417,2.0,235.0660434,36.16665038,-99999.0,'11111222,11111222,99999999' 
TABS,ioos:station:wmo:42051:1,2000-06-05T07:00:00Z,29.6350,-93.6417,2.0,231.1527741,36.34963686,-99999.0,'11111222,11111222,99999999' 
TABS,ioos:station:wmo:42051:1,2000-06-05T07:30:00Z,29.6350,-93.6417,2.0,229.8160461,37.64494256,-99999.0,'11111222,11111222,99999999' 
TABS,ioos:station:wmo:42051:1,2000-06-05T08:00:00Z,29.6350,-93.6417,2.0,230.5744184,34.72052563,-99999.0,'11111222,11111222,99999999' 
TABS,ioos:station:wmo:42051:1,2000-06-05T08:30:00Z,29.6350,-93.6417,2.0,228.4063916,35.46042865,-99999.0,'11111222,11111222,99999999' 
TABS,ioos:station:wmo:42051:1,2000-06-05T09:00:00Z,29.6350,-93.6417,2.0,230.388079,33.65852789,-99999.0,'11111222,11111222,99999999' 
TABS,ioos:station:wmo:42051:1,2000-06-05T09:30:00Z,29.6350,-93.6417,2.0,233.9747357,34.44774593,-99999.0,'11111222,11111222,99999999' 
TABS,ioos:station:wmo:42051:1,2000-06-05T10:00:00Z,29.6350,-93.6417,2.0,241.7009647,37.39970321,-99999.0,'11111222,11111222,99999999' 
TABS,ioos:station:wmo:42051:1,2000-06-05T10:30:00Z,29.6350,-93.6417,2.0,241.7024181,32.99260675,-99999.0,'11111222,11111222,99999999' 
TABS,ioos:station:wmo:42051:1,2000-06-05T11:00:00Z,29.6350,-93.6417,2.0,244.9993863,41.59743261,-99999.0,'11111222,11111222,99999999' 
TABS,ioos:station:wmo:42051:1,2000-06-05T11:30:00Z,29.6350,-93.6417,2.0,258.7672493,40.55685392,-99999.0,'11111222,11111222,99999999' 
TABS,ioos:station:wmo:42051:1,2000-06-05T12:00:00Z,29.6350,-93.6417,2.0,262.1379594,44.66983994,-99999.0,'11111222,11111222,99999999' 
TABS,ioos:station:wmo:42051:1,2000-06-05T12:30:00Z,29.6350,-93.6417,2.0,266.7789207,39.69269202,-99999.0,'11111222,11111222,99999999' 
TABS,ioos:station:wmo:42051:1,2000-06-05T13:00:00Z,29.6350,-93.6417,2.0,268.2054351,38.00863323,-99999.0,'11111222,11111222,99999999' 
TABS,ioos:station:wmo:42051:1,2000-06-05T13:30:00Z,29.6350,-93.6417,2.0,265.3886642,33.33789585,-99999.0,'11111222,11111222,99999999' 
TABS,ioos:station:wmo:42051:1,2000-06-05T14:00:00Z,29.6350,-93.6417,2.0,276.031211,45.40127091,-99999.0,'11111222,11111222,99999999' 
TABS,ioos:station:wmo:42051:1,2000-06-05T14:30:00Z,29.6350,-93.6417,2.0,272.0312338,42.04640888,-99999.0,'11111222,11111222,99999999' 
TABS,ioos:station:wmo:42051:1,2000-06-05T15:00:00Z,29.6350,-93.6417,2.0,279.0098699,42.84864642,-99999.0,'11111222,11111222,99999999' 
TABS,ioos:station:wmo:42051:1,2000-06-05T15:30:00Z,29.6350,-93.6417,2.0,279.2616764,40.76133585,-99999.0,'11111222,11111222,99999999' 
TABS,ioos:station:wmo:42051:1,2000-06-05T16:00:00Z,29.6350,-93.6417,2.0,285.4596928,30.76300538,-99999.0,'11111222,11111222,99999999' 
TABS,ioos:station:wmo:42051:1,2000-06-05T16:30:00Z,29.6350,-93.6417,2.0,270.0004209,31.59,-99999.0,'11111222,11111222,99999999' 
TABS,ioos:station:wmo:42051:1,2000-06-05T17:00:00Z,29.6350,-93.6417,2.0,272.9008802,38.33911449,-99999.0,'11111222,11111222,99999999' 
TABS,ioos:station:wmo:42051:1,2000-06-05T17:30:00Z,29.6350,-93.6417,2.0,274.3979254,36.90865617,-99999.0,'11111222,11111222,99999999' 
TABS,ioos:station:wmo:42051:1,2000-06-05T18:00:00Z,29.6350,-93.6417,2.0,269.7697849,37.4003008,-99999.0,'11111222,11111222,99999999' 
TABS,ioos:station:wmo:42051:1,2000-06-05T18:30:00Z,29.6350,-93.6417,2.0,270.0004209,36.36,-99999.0,'11111222,11111222,99999999' 
TABS,ioos:station:wmo:42051:1,2000-06-05T19:00:00Z,29.6350,-93.6417,2.0,270.0004209,37.1,-99999.0,'11111222,11111222,99999999' 
TABS,ioos:station:wmo:42051:1,2000-06-05T19:30:00Z,29.6350,-93.6417,2.0,268.0337482,39.06299016,-99999.0,'11111222,11111222,99999999' 
TABS,ioos:station:wmo:42051:1,2000-06-05T20:00:00Z,29.6350,-93.6417,2.0,270.2358811,36.50030822,-99999.0,'11111222,11111222,99999999' 
TABS,ioos:station:wmo:42051:1,2000-06-05T20:30:00Z,29.6350,-93.6417,2.0,267.1104187,38.48892308,-99999.0,'11111222,11111222,99999999' 
TABS,ioos:station:wmo:42051:1,2000-06-05T21:00:00Z,29.6350,-93.6417,2.0,265.8534839,39.14243861,-99999.0,'11111222,11111222,99999999' 
TABS,ioos:station:wmo:42051:1,2000-06-05T21:30:00Z,29.6350,-93.6417,2.0,271.5263784,39.05385,-99999.0,'11111222,11111222,99999999' 
TABS,ioos:station:wmo:42051:1,2000-06-05T22:00:00Z,29.6350,-93.6417,2.0,267.3290216,35.19822723,-99999.0,'11111222,11111222,99999999' 
TABS,ioos:station:wmo:42051:1,2000-06-05T22:30:00Z,29.6350,-93.6417,2.0,271.0123083,33.97529838,-99999.0,'11111222,11111222,99999999' 
TABS,ioos:station:wmo:42051:1,2000-06-05T23:00:00Z,29.6350,-93.6417,2.0,270.816543,31.59320497,-99999.0,'11111222,11111222,99999999' 
TABS,ioos:station:wmo:42051:1,2000-06-05T23:30:00Z,29.6350,-93.6417,2.0,279.2592933,27.78195997,-99999.0,'11111222,11111222,99999999' 
TABS,ioos:station:wmo:42051:1,2000-06-06T00:00:00Z,29.6350,-93.6417,2.0,272.196523,27.13993368,-99999.0,'11111222,11111222,99999999' 
TABS,ioos:station:wmo:42051:1,2000-06-06T00:30:00Z,29.6350,-93.6417,2.0,276.258247,24.58650036,-99999.0,'11111222,11111222,99999999' 
TABS,ioos:station:wmo:42051:1,2000-06-06T01:00:00Z,29.6350,-93.6417,2.0,281.7199926,24.96033854,-99999.0,'11111222,11111222,99999999' 
TABS,ioos:station:wmo:42051:1,2000-06-06T01:30:00Z,29.6350,-93.6417,2.0,284.0366316,24.57370953,-99999.0,'11111222,11111222,99999999' 
TABS,ioos:station:wmo:42051:1,2000-06-06T02:00:00Z,29.6350,-93.6417,2.0,282.9388127,20.63386779,-99999.0,'11111222,11111222,99999999' 
TABS,ioos:station:wmo:42051:1,2000-06-06T02:30:00Z,29.6350,-93.6417,2.0,288.5844043,18.23059242,-99999.0,'11111222,11111222,99999999' 
TABS,ioos:station:wmo:42051:1,2000-06-06T03:00:00Z,29.6350,-93.6417,2.0,278.2520035,18.67331786,-99999.0,'11111222,11111222,99999999' 
TABS,ioos:station:wmo:42051:1,2000-06-06T03:30:00Z,29.6350,-93.6417,2.0,268.4947856,17.13590966,-99999.0,'11111222,11111222,99999999' 
TABS,ioos:station:wmo:42051:1,2000-06-06T04:00:00Z,29.6350,-93.6417,2.0,258.8052971,14.57734201,-99999.0,'11111222,11111222,99999999' 
TABS,ioos:station:wmo:42051:1,2000-06-06T04:30:00Z,29.6350,-93.6417,2.0,256.7181544,13.62440824,-99999.0,'11111222,11111222,99999999' 
TABS,ioos:station:wmo:42051:1,2000-06-06T05:00:00Z,29.6350,-93.6417,2.0,259.236337,12.74420653,-99999.0,'11111222,11111222,99999999' 